Regional Weather Roundup
Issued by NWS Tiyan, Guam

Home | Current Version | Previous Version | Text Only | Print | Product List | Glossary On
Versions: 1 2 3 4 5 6 7 8 9 10 11 12 13 14 15 16 17 18 19 20 21 22 23 24 25 26 27 28 29 30 31 32 33 34 35 36 37 38 39 40 41 42 43 44 45 46 47 48 49 50
000
ASGM40 PGUM 212212
RWRGUM
WEATHER ROUNDUP FOR THE MARIANAS
NATIONAL WEATHER SERVICE TIYAN GU
800 AM CHST WED OCT 22 2014

GUZ001>004-212300-
MARIANA ISLANDS-

CITY           SKY/WX    TMP DP  RH WIND       PRES   REMARKS
GUAM AIRPORT   MOSUNNY   82  73  74 E5        29.84R
ANDERSEN AFB   SUNNY     81  73  78 E7        29.84R
ROTA AIRPORT   SUNNY     81  73  78 E7        29.84R
TINIAN AP      MOSUNNY   82  77  83 E6        29.82R HX  91
SAIPAN AP      MOSUNNY   81  75  83 E5        29.84R

$$




USA.gov is the U.S. government's official web portal to all federal, state and local government web resources and services.